Regional Weather Roundup
Issued by NWS

Home | Current Version | Previous Version | Text Only | Print | Product List | Glossary On
Versions: 1 2 3 4 5 6 7 8 9 10 11 12 13 14 15 16 17 18 19 20 21 22 23 24 25 26 27 28 29 30 31 32 33 34 35 36 37 38 39 40 41 42 43 44 45 46 47 48 49 50
000
ASUS44 KFWD 191815
RWRTX
NORTH TEXAS HOURLY WEATHER ROUNDUP
NATIONAL WEATHER SERVICE FORT WORTH TX
1200 PM CST THU JAN 19 2017

NOTE: "FAIR" INDICATES FEW OR NO CLOUDS BELOW 12,000 FEET WITH NO
SIGNIFICANT WEATHER AND/OR OBSTRUCTIONS TO VISIBILITY.

TXZ118-119-191900-
DALLAS/FORT WORTH METROPLEX

CITY           SKY/WX    TMP DP  RH WIND       PRES   REMARKS
DFW AIRPORT    MOSUNNY   58  50  75 S14       29.76F
6HR MIN TEMP:  48; 6HR MAX TEMP:  58;

DALLAS LOVE    MOSUNNY   58  50  75 S10       29.77F
6HR MIN TEMP:  49; 6HR MAX TEMP:  57;

FTW MEACHAM    SUNNY     59  48  67 S13       29.76F
6HR MIN TEMP:  49; 6HR MAX TEMP:  59;

DAL-EXECUTIVE  MOSUNNY   56  51  84 S13       29.78F
6HR MIN TEMP:  49; 6HR MAX TEMP:  56;

FTW-ALLIANCE   MOSUNNY   59  48  67 S13       29.76F
6HR MIN TEMP:  48; 6HR MAX TEMP:  59;

FTW-NAS-JRB    MOSUNNY   59  49  69 S13       29.78F
6HR MIN TEMP:  49; 6HR MAX TEMP:  59;

FTW-SPINKS     SUNNY     61  48  63 S10       29.79F
ARLINGTON      SUNNY     56  49  77 S13       29.78F
6HR MIN TEMP:  48; 6HR MAX TEMP:  56;

GRAND PRAIRIE  MOSUNNY   55  48  76 S7        29.80F
ADDISON        MOSUNNY   55  52  88 S10       29.78F
MESQUITE       CLOUDY    54  52  94 S12       29.82F
LANCASTER      CLOUDY    53  49  87 S9        29.82F
6HR MIN TEMP:  49; 6HR MAX TEMP:  53;

$$

TXZ091>094-102>105-117-120-121-131>134-191900-
NORTH CENTRAL TEXAS

CITY           SKY/WX    TMP DP  RH WIND       PRES   REMARKS
SHRMAN/DENISON CLOUDY    54  53  97 S15       29.77F
GAINESVILLE    CLOUDY    49  48  98 S14       29.77F
6HR MIN TEMP:  43; 6HR MAX TEMP:  49;

BOWIE          MOSUNNY   57  50  77 S13G18    29.72F
6HR MIN TEMP:  45; 6HR MAX TEMP:  57;

BRIDGEPORT     SUNNY     61  49  65 S14G21    29.75F
6HR MIN TEMP:  48; 6HR MAX TEMP:  61;

DECATUR        SUNNY     70  60  72 S12       29.75F
6HR MIN TEMP:  60; 6HR MAX TEMP:  70;

DENTON         MOSUNNY   55  50  83 S13       29.76F
6HR MIN TEMP:  47; 6HR MAX TEMP:  55;

MCKINNEY       CLOUDY    52  50  93 S15       29.78F
6HR MIN TEMP:  50; 6HR MAX TEMP:  52;

BONHAM         CLOUDY    52  50  93 S15       29.79F
GREENVILLE     CLOUDY    54  52  94 S9        29.81F
ROCKWALL       CLOUDY    52  51  97 SW10      29.81F
6HR MIN TEMP:  50; 6HR MAX TEMP:  52;

TERRELL        CLOUDY    53  51  93 S10       29.81F
6HR MIN TEMP:  51; 6HR MAX TEMP:  53;

WAXAHACHIE     CLOUDY    54  53  95 SE7       29.82F
6HR MIN TEMP:  48; 6HR MAX TEMP:  54;

CLEBURNE       SUNNY     59  54  82 S10       29.79F
GRANBURY       SUNNY     64  49  58 S10G17    29.78F
6HR MIN TEMP:  49; 6HR MAX TEMP:  64;

$$

TXZ083>090-098>101-113>116-127>130-139>142-154-155-191900-
WESTERN NORTH TEXAS

CITY           SKY/WX    TMP DP  RH WIND       PRES   REMARKS
WICHITA FALLS  MOSUNNY   60  45  57 S18G28    29.67F
6HR MIN TEMP:  38; 6HR MAX TEMP:  60;

WF-KICKAPOO    SUNNY     61  44  54 SW14G21   29.69F
6HR MIN TEMP:  38; 6HR MAX TEMP:  61;

VERNON         SUNNY     59  40  48 SW16G23   29.64F
6HR MIN TEMP:  33; 6HR MAX TEMP:  59;

ABILENE        SUNNY     62  43  49 SW17G26   29.74F
6HR MIN TEMP:  43; 6HR MAX TEMP:  62;

ABILENE-DYESS  SUNNY     64  29  27 SW20G29   29.71F
6HR MIN TEMP:  42; 6HR MAX TEMP:  64;

GRAHAM         SUNNY     64  45  48 S14G21    29.70F
BRECKENRIDGE   SUNNY     66  43  42 SW17G25   29.73F HAZE
6HR MIN TEMP:  43; 6HR MAX TEMP:  66;

CISCO          SUNNY     63  45  51 SW18G25   29.76F
RANGER         SUNNY     63  45  51 SW14      29.76F
MINERAL WELLS  SUNNY     63  47  55 S12       29.74F
6HR MIN TEMP:  45; 6HR MAX TEMP:  63;

STEPHENVILLE   SUNNY     64  44  49 SW7       29.80F
6HR MIN TEMP:  46; 6HR MAX TEMP:  64;

COMANCHE       SUNNY     64  46  53 SW16      29.79F
6HR MIN TEMP:  45; 6HR MAX TEMP:  64;

BROWNWOOD      SUNNY     63  46  55 SW12G17   29.79F
COLEMAN        SUNNY     66  39  37 SW23G35   29.77F
$$

TXZ143>147-156>162-174-175-191900-
CENTRAL TEXAS

CITY           SKY/WX    TMP DP  RH WIND       PRES   REMARKS
WACO           MOSUNNY   58  52  80 S14       29.83F
6HR MIN TEMP:  50; 6HR MAX TEMP:  58;

WACO-MCGREGOR  MOSUNNY   60  54  80 S14       29.82F
6HR MIN TEMP:  50; 6HR MAX TEMP:  61;

HILLSBORO      PTSUNNY   56  51  86 S10       29.82F
6HR MIN TEMP:  50; 6HR MAX TEMP:  56;

CORSICANA      CLOUDY    55  52  89 S13       29.84F
6HR MIN TEMP:  52; 6HR MAX TEMP:  55;

MEXIA          CLOUDY    53  50  92 S17       29.84F
6HR MIN TEMP:  50; 6HR MAX TEMP:  53; 6HR PCP:  0.01;

HEARNE         CLOUDY    54  53  95 S8        29.88F
6HR MIN TEMP:  51; 6HR MAX TEMP:  54;

CAMERON        CLOUDY    55  52  89 S9        29.86F
6HR MIN TEMP:  51; 6HR MAX TEMP:  55;

TEMPLE         MOSUNNY   60  53  77 S14       29.84F
6HR MIN TEMP:  50; 6HR MAX TEMP:  60;

KILLEEN        SUNNY     63  51  65 S12       29.81F
6HR MIN TEMP:  49; 6HR MAX TEMP:  63;

KILLEEN-SKYLRK SUNNY     64  53  67 S10G17    29.83F
6HR MIN TEMP:  50; 6HR MAX TEMP:  64;

FORT HOOD      SUNNY     63  52  67 S9        29.79F
6HR MIN TEMP:  49; 6HR MAX TEMP:  63;

GATESVILLE     SUNNY     64  50  59 S12       29.83F
HAMILTON       SUNNY     66  47  50 SW13      29.81F
6HR MIN TEMP:  47; 6HR MAX TEMP:  66;

LAMPASAS       SUNNY     62  51  66 W13G18    29.82F
6HR MIN TEMP:  50; 6HR MAX TEMP:  62;

$$

TXZ095>097-106>112-122>126-135>138-148>153-164>167-191900-
EAST TEXAS

CITY           SKY/WX    TMP DP  RH WIND       PRES   REMARKS
PARIS          CLOUDY    52  48  87 SE12      29.80F
6HR MIN TEMP:  48; 6HR MAX TEMP:  52;

SULPHUR SPRNGS CLOUDY    53  53  99 S9        29.84S
6HR MIN TEMP:  51; 6HR MAX TEMP:  53;

MOUNT PLEASANT CLOUDY    53  53 100 SE9       29.83F
6HR MIN TEMP:  51; 6HR MAX TEMP:  53;

GILMER           N/A     53  53 100 SE3       29.82F FOG
6HR MIN TEMP:  51; 6HR MAX TEMP:  53;

MINEOLA        CLOUDY    52  52 100 S6        29.83F
TYLER          FOG       53  53 100 SW10      29.83F VSB 1
6HR MIN TEMP:  51; 6HR MAX TEMP:  54;

LONGVIEW       CLOUDY    55  55 100 SW7       29.82F FOG
6HR MIN TEMP:  53; 6HR MAX TEMP:  55;

MARSHALL       CLOUDY    54  53  94 CALM      29.83F
6HR MIN TEMP:  51; 6HR MAX TEMP:  54; 6HR PCP:  0.01;

ATHENS         CLOUDY    50  50 100 S8        29.83F FOG
PALESTINE      CLOUDY    52  52 100 S6        29.87F FOG
JACKSONVILLE   FOG       52  52 100 S7        29.85F VSB 1/4
HENDERSON      CLOUDY   N/A N/A N/A W5        29.84F FOG
CENTER         MOCLDY    59  58  96 S6        29.81F
6HR MIN TEMP:  58; 6HR MAX TEMP:  59; 6HR PCP:  0.05;

NACOGDOCHES    CLOUDY    55  54  94 W6        29.83S
6HR MIN TEMP:  54; 6HR MAX TEMP:  55;

LUFKIN         CLOUDY    55  55 100 W9        29.85R
6HR MIN TEMP:  53; 6HR MAX TEMP:  56; 6HR PCP:  0.13;

$$

SUPPLEMENTAL OBSERVATIONS (CENTRAL)

CITY           SKY/WX    TMP DP  RH WIND       PRES   REMARKS
DENISON DAM      N/A     54  48  82 S8          N/A
CADDO GRASSLND   N/A     54  50  87 S9          N/A
PAT MAYSE LAKE   N/A     50  48  93 SE9         N/A
GREENVILLE       N/A     52  48  87 S12         N/A
CEDAR HILL       N/A     57  50  77 S8          N/A
ATHENS           N/A     54  52  94 SW7         N/A
LAKE LIMESTONE   N/A     55  52  88 S10         N/A
MCGREGOR         N/A     61  57  88 S12         N/A


USA.gov is the U.S. government's official web portal to all federal, state and local government web resources and services.